Location: La Chapelle
(48.3135°N, 1.3085°W)
Time: 08:59:30
(UTC+00:00)

Cosmos 2333 Rocket - Pass Details

Date: 03 March 2021
Orbit: 837 x 864 km, 70.8° (Epoch: 11 April)

Event Time Altitude Azimuth Distance (km) Brightness Sun altitude
Rises 18:47:35 0° 162° (SSE) 3,388 5.1 -9.9°
Reaches altitude 10° 18:50:36 10° 146° (SE) 2,463 4.3 -10.4°
Maximum altitude 18:54:37 20° 100° (E) 1,855 3.4 -11.1°
Drops below altitude 10° 18:58:39 10° 55° (NE) 2,489 4.2 -11.8°
Sets 19:01:43 0° 39° (NE) 3,435 5.0 -12.3°
